[[{"header":{"parameterUnit":"m.s-1","parameterCategory":1,"la1":30.2991,"la2":30.254,"lo1":-89.0895,"lo2":-89.0444,"dy":0.0017,"dx":0.0017,"nx":28,"ny":28,"refTime":"2024-06-28T21:00:00:Z","depth":0,"parameterNumber":2,"parameterNumberName":"U-component_of_WINDS"},"data":[0,0,0,0,0,0,0,0,0,0,0,0,0,0,0,0,0,0,0,0,0,0,0,0,0,0,0,0,0,0,0,0,0,0,0,0,0,0,0,0,0,0,0,0,0,0,0,0,0,0,0,0,0,0,0,0,0,0,1.3356,1.3356,0,1.3272,1.3271,1.327,1.3086,1.3083,1.3079,1.3075,1.2997,1.2998,1.3,0,0,0,0,0,0,0,0,0,0,0,0,0,1.3367,1.3368,1.3357,1.3355,1.3354,1.3272,1.3271,1.327,1.3087,1.3083,1.3078,1.3074,1.2996,1.2998,1.3,0,0,0,0,0,0,0,0,0,0,0,0,0,1.3331,1.3368,1.3357,1.3253,1.3243,1.3273,1.3271,1.327,1.3088,1.3082,1.3077,1.3071,1.2996,1.2998,1.3,1.3126,0,0,1.3007,1.3007,0,0,0,0,0,0,0,0,1.3333,1.3331,1.3269,1.326,1.3249,1.3184,1.3246,1.3222,1.3089,1.3147,1.3075,1.3069,1.3064,1.306,1.3057,1.3123,1.3119,1.3007,1.3008,1.3009,1.301,0,0,0,0,0,0,0,1.3336,1.3334,1.3323,1.3269,1.3256,1.3213,1.3202,1.3241,1.3139,1.3142,1.3128,1.312,1.3058,1.3056,1.3054,1.3118,1.3007,1.3009,1.301,1.3011,1.3285,1.3291,0,0,0,0,0,0,1.3353,1.3337,1.3326,1.3321,1.3278,1.3218,1.3205,1.3211,1.3138,1.3121,1.3125,1.3112,1.3055,1.3052,1.3051,1.3195,1.3009,1.3011,1.3012,1.3279,1.3287,1.3293,0,0,0,0,0,0,1.3353,1.3353,1.3329,1.3325,1.3319,1.3224,1.3231,1.3212,1.3209,1.3125,1.3107,1.3141,1.305,1.3048,1.3109,1.3189,1.3012,1.3014,1.3272,1.3282,1.329,1.3484,0,0,0,0,0,0,1.3355,1.3355,1.34,1.3327,1.332,1.3387,1.3236,1.3214,1.3213,1.3195,1.3135,1.312,1.3046,1.3107,1.3111,1.3189,1.3015,1.3265,1.3276,1.3287,1.347,1.3499,1.3523,0,0,0,0,0,1.3356,1.3459,1.3403,1.3402,1.3373,1.3392,1.3388,1.3298,1.322,1.3266,1.3212,1.3122,1.318,1.3114,1.3118,1.3198,1.3259,1.3273,1.3286,1.3458,1.3493,1.3522,0,0,0,0,0,0,1.3545,1.3447,1.3384,1.3466,1.3439,1.3361,1.3415,1.3337,1.3333,1.3316,1.3207,1.3195,1.3272,1.3241,1.317,1.3318,1.3205,1.322,1.3335,1.3367,1.3393,1.34,1.3017,0,0,0,0,0,1.3596,1.3617,1.3531,1.3612,1.3601,1.3512,1.3516,1.3449,1.3417,1.3405,1.3355,1.333,1.3342,1.3353,1.3359,1.3465,1.345,1.3522,1.3548,1.357,1.3585,1.3641,1.3672,1.3338,1.3338,1.3337,0,0,1.3703,1.3652,1.3672,1.3649,1.362,1.3647,1.3503,1.3537,1.3557,1.3411,1.3465,1.3429,1.3393,1.3478,1.3512,1.3454,1.3674,1.3588,1.3606,1.3608,1.3658,1.369,1.3718,1.3347,1.3345,1.3344,0,0,1.391,1.3873,1.3936,1.391,1.3867,1.3806,1.3822,1.3757,1.3726,1.3778,1.367,1.3694,1.3717,1.3696,1.3689,1.3892,1.381,1.3897,1.4036,1.4092,1.4118,1.4141,1.4215,1.4242,1.3912,1.3912,1.3913,0,1.4048,1.4081,1.398,1.4021,1.4016,1.3883,1.395,1.3929,1.3892,1.3893,1.3828,1.3855,1.3822,1.39,1.395,1.3948,1.3965,1.3903,1.4122,1.4144,1.4164,1.4233,1.4261,1.3923,1.3922,1.3921,1.392,0,1.4255,1.428,1.4337,1.4302,1.4303,1.4357,1.4267,1.4281,1.4215,1.4163,1.422,1.4175,1.4171,1.4185,1.4121,1.4256,1.4221,1.4141,1.4026,1.4208,1.4272,1.4297,1.3939,1.3935,1.3932,1.3929,0,0,1.4578,1.4487,1.451,1.4493,1.4437,1.4456,1.4505,1.4499,1.4514,1.4494,1.4534,1.4557,1.4483,1.4475,1.4408,1.4457,1.4623,1.437,1.4368,1.442,1.4771,1.4833,1.4865,1.4568,1.4572,1.4576,1.4774,0,1.4774,1.4849,1.4761,1.4857,1.488,1.4756,1.4799,1.4771,1.4725,1.474,1.4689,1.4708,1.4607,1.4602,1.4644,1.4593,1.4692,1.4578,1.4607,1.4609,1.462,1.4897,1.4962,1.5151,1.4798,1.4802,1.4805,0,1.5011,1.5,1.5098,1.5036,1.5043,1.5083,1.5071,1.5087,1.5054,1.5017,1.5009,1.4928,1.4975,1.4863,1.4928,1.4853,1.486,1.4837,1.4842,1.4842,1.4719,1.4906,1.5209,1.5238,1.4843,1.484,1.4837,0,1.5239,1.5249,1.5309,1.5298,1.5228,1.526,1.5232,1.5193,1.5196,1.5187,1.5188,1.5187,1.5186,1.5188,1.511,1.5035,1.5186,1.5067,1.5159,1.5161,1.5196,1.5195,1.5506,1.52,1.5199,1.5199,1.5198,0,1.5467,1.5533,1.5411,1.5448,1.5519,1.5418,1.5492,1.5452,1.5419,1.5448,1.5341,1.5372,1.5266,1.5287,1.5227,1.5291,1.5292,1.5265,1.5248,1.5275,1.5279,1.5278,1.5264,1.5206,1.5205,1.5203,1.5202,0,1.5734,1.5655,1.5712,1.5641,1.5625,1.568,1.562,1.5654,1.56,1.5639,1.5643,1.556,1.5579,1.5501,1.5507,1.5466,1.5563,1.5524,1.5574,1.5562,1.5659,1.5651,1.5981,1.602,1.5689,1.5692,1.5695,0,1.5885,1.5932,1.5866,1.5876,1.5854,1.5873,1.5875,1.5779,1.5787,1.5753,1.5792,1.5801,1.5803,1.584,1.5782,1.5787,1.5748,1.5863,1.5748,1.5774,1.5752,1.575,1.5755,1.5888,1.5892,1.5895,1.5898,0,1.6162,1.6121,1.6126,1.6119,1.6124,1.6115,1.6098,1.6114,1.6011,1.6025,1.6041,1.6043,1.6049,1.6061,1.6054,1.6028,1.5948,1.5935,1.5956,1.5984,1.6012,1.5999,1.564,1.5928,1.5925,1.5922,1.5921,1.592,1.6376,1.6413,1.6372,1.6382,1.636,1.6347,1.6375,1.6325,1.6336,1.6331,1.6275,1.6304,1.6272,1.6253,1.6236,1.6259,1.6205,1.6237,1.6245,1.6254,1.6271,1.6008,1.6258,1.6257,1.6256,1.6255,1.6254,0,1.6648,1.6616,1.6627,1.6606,1.6616,1.6536,1.6514,1.6528,1.6553,1.6529,1.6534,1.6555,1.6566,1.651,1.6514,1.6543,1.6507,1.6548,1.6545,1.6541,1.6319,1.63,1.6578,1.6578,1.6578,1.6577,1.6577,1.6577,1.6791,1.6849,1.6804,1.6851,1.6819,1.6844,1.6838,1.6828,1.6808,1.6835,1.6843,1.6805,1.6769,1.677,1.6778,1.6761,1.6769,1.6824,1.6795,1.6588,1.6557,1.6527,1.6508,1.6826,1.6826,1.7015,1.7017,1.7018]},{"header":{"parameterUnit":"m.s-1","parameterCategory":1,"la1":30.2991,"la2":30.254,"lo1":-89.0895,"lo2":-89.0444,"dy":0.0017,"dx":0.0017,"nx":28,"ny":28,"refTime":"2024-06-28T21:00:00:Z","depth":0,"parameterNumber":3,"parameterNumberName":"V-component_of_WINDS"},"data":[0,0,0,0,0,0,0,0,0,0,0,0,0,0,0,0,0,0,0,0,0,0,0,0,0,0,0,0,0,0,0,0,0,0,0,0,0,0,0,0,0,0,0,0,0,0,0,0,0,0,0,0,0,0,0,0,0,0,2.3669,2.3672,0,2.3941,2.3944,2.3947,2.3977,2.3974,2.3972,2.3969,2.4244,2.4254,2.4264,0,0,0,0,0,0,0,0,0,0,0,0,0,2.3168,2.3177,2.3669,2.3673,2.3676,2.394,2.3944,2.3948,2.3978,2.3974,2.3971,2.3968,2.4241,2.4253,2.4265,0,0,0,0,0,0,0,0,0,0,0,0,0,2.3407,2.318,2.3669,2.3723,2.373,2.394,2.3944,2.3949,2.3978,2.3974,2.397,2.3966,2.4237,2.4252,2.4266,2.444,0,0,2.4311,2.4318,0,0,0,0,0,0,0,0,2.3393,2.3425,2.3711,2.3719,2.3728,2.3921,2.3868,2.4113,2.3979,2.3884,2.3969,2.3964,2.414,2.4162,2.4222,2.4452,2.4464,2.4313,2.4322,2.4328,2.4332,0,0,0,0,0,0,0,2.3377,2.3414,2.3777,2.3715,2.3726,2.3731,2.376,2.3915,2.4032,2.3892,2.3895,2.3927,2.4144,2.4208,2.4229,2.4468,2.4312,2.4326,2.4335,2.434,2.4846,2.485,0,0,0,0,0,0,2.3351,2.34,2.3768,2.3785,2.3547,2.3743,2.3776,2.3863,2.403,2.4052,2.393,2.3927,2.4185,2.4212,2.4239,2.4449,2.4328,2.4342,2.435,2.4841,2.4847,2.4852,0,0,0,0,0,0,2.334,2.3384,2.3757,2.3593,2.3641,2.3756,2.3854,2.3871,2.3935,2.4059,2.4079,2.3975,2.4183,2.4218,2.4388,2.4459,2.4349,2.4362,2.4836,2.4843,2.4849,2.4873,0,0,0,0,0,0,2.3326,2.338,2.3449,2.3595,2.365,2.3905,2.3858,2.3879,2.3961,2.396,2.4106,2.4126,2.4182,2.4366,2.4403,2.4477,2.4374,2.483,2.4839,2.4847,2.4866,2.4879,2.4891,0,0,0,0,0,2.3308,2.3446,2.3453,2.3497,2.374,2.3909,2.394,2.4002,2.3967,2.4036,2.4113,2.4122,2.4444,2.4383,2.4425,2.4505,2.4826,2.4837,2.4846,2.4861,2.4877,2.489,0,0,0,0,0,0,2.3308,2.3467,2.3476,2.3666,2.3773,2.3914,2.4004,2.4019,2.4138,2.4132,2.4202,2.4235,2.4401,2.447,2.4398,2.4677,2.4631,2.465,2.4627,2.4644,2.4656,2.4637,2.4386,0,0,0,0,0,2.3329,2.3455,2.3586,2.3741,2.3794,2.3889,2.3965,2.4003,2.4117,2.4163,2.4254,2.4362,2.4487,2.4569,2.4692,2.4874,2.4904,2.4949,2.4961,2.4971,2.4987,2.5083,2.5103,2.4885,2.4885,2.4885,0,0,2.3377,2.3479,2.3555,2.3743,2.3832,2.3957,2.3928,2.4064,2.4157,2.4183,2.4349,2.4418,2.4544,2.4719,2.4801,2.4781,2.5053,2.4984,2.4991,2.5002,2.5095,2.5116,2.5134,2.4892,2.4891,2.489,0,0,2.3527,2.3618,2.3755,2.3842,2.3974,2.4035,2.4067,2.4204,2.425,2.4417,2.4438,2.4547,2.4763,2.485,2.4923,2.5095,2.5105,2.5132,2.5198,2.529,2.5308,2.5323,2.5382,2.5402,2.5148,2.5148,2.5148,0,2.3569,2.3762,2.3823,2.3957,2.4037,2.4064,2.42,2.4281,2.4447,2.45,2.4475,2.4741,2.4828,2.5022,2.5063,2.5121,2.5157,2.5118,2.53,2.5317,2.5332,2.5389,2.5411,2.515,2.515,2.515,2.5149,0,2.3804,2.3937,2.403,2.4188,2.4278,2.4413,2.449,2.4574,2.46,2.4662,2.4828,2.4931,2.5072,2.512,2.515,2.5316,2.5299,2.5286,2.5242,2.5354,2.5408,2.5431,2.5153,2.5153,2.5152,2.5151,0,0,2.3969,2.4153,2.4186,2.4255,2.4399,2.4502,2.4633,2.4771,2.4839,2.4949,2.506,2.5237,2.5224,2.5306,2.5343,2.5424,2.5549,2.5401,2.5405,2.5423,2.5734,2.5743,2.5767,2.5555,2.5559,2.5563,2.5722,0,2.4135,2.4374,2.4428,2.4632,2.4752,2.4775,2.4889,2.4987,2.5046,2.5153,2.5217,2.5341,2.5316,2.5365,2.5445,2.5517,2.5612,2.5506,2.5656,2.566,2.5625,2.5796,2.5808,2.5955,2.5744,2.5748,2.5751,0,2.4363,2.4476,2.4691,2.4813,2.4865,2.4968,2.5094,2.5198,2.5307,2.5343,2.543,2.5457,2.559,2.5536,2.5718,2.5644,2.5707,2.575,2.5757,2.5775,2.5714,2.5817,2.6003,2.6024,2.5785,2.5783,2.578,0,2.4458,2.4664,2.4819,2.4877,2.5024,2.5094,2.5158,2.5263,2.5339,2.5448,2.5498,2.5621,2.5688,2.578,2.5838,2.5794,2.6013,2.5965,2.6045,2.6043,2.6093,2.6089,2.629,2.6133,2.6132,2.6132,2.6131,0,2.4638,2.4768,2.4863,2.4958,2.5102,2.516,2.53,2.5364,2.5455,2.5559,2.5585,2.5682,2.5752,2.5857,2.5902,2.6043,2.6074,2.6104,2.6115,2.6103,2.6098,2.6146,2.6138,2.6138,2.6136,2.6135,2.6134,0,2.4771,2.484,2.5009,2.5131,2.5165,2.5265,2.5369,2.5459,2.5515,2.5646,2.568,2.5768,2.5892,2.5957,2.6113,2.6143,2.63,2.6305,2.6264,2.6269,2.6344,2.6335,2.6584,2.6618,2.6437,2.6439,2.644,0,2.4882,2.4982,2.5114,2.5186,2.525,2.5366,2.5443,2.5501,2.558,2.5707,2.5781,2.5906,2.601,2.6206,2.6282,2.6399,2.6406,2.6484,2.6424,2.6406,2.6405,2.6398,2.6407,2.6496,2.6498,2.6499,2.65,0,2.5071,2.5097,2.5209,2.533,2.5421,2.5519,2.5616,2.5672,2.5745,2.5831,2.5958,2.6038,2.6193,2.6316,2.6437,2.6499,2.6511,2.6517,2.6542,2.6531,2.6502,2.6517,2.6293,2.6513,2.6511,2.651,2.651,2.6509,2.5196,2.5283,2.5388,2.5509,2.5586,2.5674,2.5764,2.5829,2.5936,2.6069,2.6094,2.6227,2.6326,2.649,2.6554,2.6656,2.664,2.6676,2.6685,2.6693,2.6695,2.6484,2.6679,2.6678,2.6678,2.6678,2.6678,0,2.5384,2.545,2.556,2.5693,2.5786,2.5788,2.5892,2.597,2.6087,2.6178,2.6278,2.642,2.6536,2.6618,2.6736,2.6801,2.6809,2.683,2.6826,2.6839,2.6704,2.6671,2.6821,2.6821,2.6821,2.6821,2.6821,2.6821,2.5493,2.564,2.5678,2.5861,2.5926,2.6058,2.6116,2.6195,2.6268,2.6426,2.6523,2.6575,2.6661,2.6783,2.6888,2.6909,2.695,2.6971,2.6991,2.6865,2.6849,2.6835,2.6804,2.698,2.698,2.7118,2.7119,2.712]}]]